This is the latest recevied weather packets stored in our database for station/object N1LJK-13. If no packets are shown the sender has not sent any weather packets the latest 10 day(s).
| Time | Temp. | Humidity | Pressure | Rain* | Wind** | Luminosity | Snow |
|---|---|---|---|---|---|---|---|
| 1777341932 | 5.56° C | 98% | 1027.8 hPa | 0 mm | - | - | - |
| 1777340731 | 6.11° C | 98% | 1027.8 hPa | 0 mm | - | - | - |
| 1777339531 | 6.67° C | 98% | 1027.6 hPa | 0 mm | - | - | - |
| 1777335931 | 7.78° C | 98% | 1027.1 hPa | 0 mm | - | - | - |
| 1777334731 | 8.33° C | 98% | 1026.9 hPa | 0 mm | - | - | - |
| 1777333531 | 8.89° C | 98% | 1026.8 hPa | 0 mm | - | - | - |
| 1777332331 | 10° C | 98% | 1026.4 hPa | 0 mm | - | - | - |
| 1777331131 | 10.56° C | 98% | 1026.2 hPa | 0 mm | - | - | - |
| 1777329932 | 11.11° C | 98% | 1026.2 hPa | 0 mm | - | - | - |
| 1777328731 | 11.67° C | 98% | 1026.2 hPa | 0 mm | - | - | - |
| 1777327531 | 12.22° C | 98% | 1026.2 hPa | 0 mm | - | - | - |
| 1777325131 | 13.33° C | 98% | 1026.2 hPa | 0 mm | - | - | - |
| 1777322731 | 14.44° C | 98% | 1026.1 hPa | 0 mm | - | - | - |
| 1777321531 | 16.11° C | 98% | 1025.8 hPa | 0 mm | - | - | - |
| 1777320331 | 18.33° C | 98% | 1025.7 hPa | 0 mm | - | - | - |
| 1777319132 | 18.89° C | 98% | 1025.7 hPa | 0 mm | - | - | - |
| 1777317931 | 19.44° C | 98% | 1025.9 hPa | 0 mm | - | - | - |
| 1777316731 | 19.44° C | 98% | 1026.1 hPa | 0 mm | - | - | - |
| 1777314332 | 18.33° C | 98% | 1026.2 hPa | 0 mm | - | - | - |
| 1777313131 | 19.44° C | 98% | 1026.4 hPa | 0 mm | - | - | - |
| 1777311932 | 19.44° C | 98% | 1026.5 hPa | 0 mm | - | - | - |
| 1777310731 | 18.89° C | 98% | 1026.6 hPa | 0 mm | - | - | - |
| 1777309532 | 20° C | 98% | 1026.6 hPa | 0 mm | - | - | - |
| 1777308331 | 20° C | 98% | 1026.7 hPa | 0 mm | - | - | - |
| 1777307132 | 21.11° C | 98% | 1026.7 hPa | 0 mm | - | - | - |
* Rain latest hour (hover to see other rain measurements)
** Current wind speed in m/s (hover to see current wind gust speed)